Home   Weather   Lampasas   Past weeks
Flag for USA

Past Weather in Lampasas, Texas, USA — Yesterday and Last 2 Weeks

Now
92 °F

Passing clouds.


Feels Like: 97 °F
Forecast: 93 / 74 °F
Wind: 16 mph from South

Location: Burnet Municipal Craddock Field

Current Time: Jun 15, 2019 at 4:23:09 pm

Latest Report: Jun 15, 2019 at 2:53 pm


Visibility: 10 mi

Pressure: 29.82 "Hg

Humidity: 47%

Dew Point: 69 °F

Location of LampasasLocation

Past Weather in Lampasas — Graph

°F

Lampasas Temperature Yesterday

Maximum temperature yesterday: 90 °F (at 3:53 pm)
Minimum temperature yesterday: 71 °F (at 6:53 am)
Average temperature yesterday: 81 °F

High & Low Weather Summary for the Past Weeks

 TemperatureHumidityPressure
High98 °F (Jun 9, 4:53 pm)97% (Jun 6, 6:32 am)30.30 "Hg (Jun 6, 6:32 am)
Low63 °F (Jun 12, 4:53 am)29% (Jun 13, 5:53 pm)29.71 "Hg (Jun 6, 7:53 pm)
Average79 °F66%29.94 "Hg
* Reported May 31 2:53 pm — Jun 15 2:53 pm, Lampasas. Weather by CustomWeather, © 2019

Note: Actual official high and low records may vary slightly from our data, if they occured in-between our weather recording intervals... More about our weather records

Advertising

Lampasas Weather History for the Previous 24 Hours

Scroll right to see more
 ConditionsComfort  
Time TempWeatherWind HumidityBarometerVisibility
2:53 pm
Sat, Jun 15
92 °FPassing clouds.16 mph47%29.82 "Hg10 mi
1:53 pm90 °FSunny.15 mph50%29.84 "Hg10 mi
12:53 pm87 °FSunny.13 mph55%29.86 "Hg10 mi
11:53 am85 °FPassing clouds.14 mph59%29.88 "Hg10 mi
11:34 am85 °FPartly sunny.12 mph59%29.94 "Hg10 mi
11:11 am84 °FOvercast.10 mph59%29.94 "Hg10 mi
10:41 am82 °FPartly sunny.16 mph63%29.94 "Hg10 mi
9:53 am80 °FPartly sunny.15 mph67%29.89 "Hg10 mi
8:53 am78 °FPartly sunny.17 mph71%29.89 "Hg10 mi
7:53 am77 °FOvercast.12 mph74%29.88 "Hg10 mi
6:53 am77 °FOvercast.14 mph77%29.87 "Hg10 mi
5:53 am77 °FOvercast.12 mph77%29.86 "Hg10 mi
4:53 am77 °FOvercast.10 mph77%29.87 "Hg10 mi
3:53 am77 °FOvercast.12 mph77%29.86 "Hg10 mi
2:53 am77 °FOvercast.14 mph77%29.87 "Hg10 mi
1:53 am76 °FOvercast.13 mph77%29.89 "Hg10 mi
1:11 am76 °FPassing clouds.13 mph77%29.95 "Hg10 mi
12:53 am76 °FPassing clouds.12 mph77%29.88 "Hg10 mi
11:53 pm
Fri, Jun 14
78 °FClear.13 mph69%29.88 "Hg10 mi
10:53 pm79 °FClear.13 mph65%29.88 "Hg10 mi
9:53 pm81 °FClear.8 mph58%29.87 "Hg10 mi
8:53 pm82 °FClear.12 mph58%29.86 "Hg10 mi
7:53 pm87 °FScattered clouds.12 mph48%29.87 "Hg10 mi
6:53 pm88 °FPassing clouds.10 mph45%29.87 "Hg10 mi
5:53 pm90 °FSunny.8 mph42%29.87 "Hg10 mi
4:53 pm90 °FSunny.17 mph42%29.89 "Hg10 mi
Weather by CustomWeather, © 2019

See weather overview